Montgomery, NY

11:31 PM EDT on May 21, 2018 (GMT -0400)
Orange County

Weather History for KMGJ - December, 2013

Change the Weather History Date:

Thursday, December 26, 2013

  Actual Average (KSWF) Record (KSWF)
Temperature  
Mean Temperature 26 °F -  
Max Temperature 33 °F 35 °F 58 °F (1979)
Min Temperature 19 °F 21 °F -8 °F (1980)
Degree Days  
Heating Degree Days 39    
Moisture  
Dew Point 19 °F    
Average Humidity 78    
Maximum Humidity 92    
Minimum Humidity 66    
Precipitation  
Precipitation 0.00 in - - ()
Sea Level Pressure  
Sea Level Pressure 30.25 in    
Wind  
Wind Speed 2 mph (SW)    
Max Wind Speed 12 mph    
Max Gust Speed -    
Visibility 8 miles    
Events Snow    
Averages and records for this station are not official NWS values.
T = Trace of Precipitation, MM = Missing Value Source: NWS Daily Summary

Daily Weather History Graph

Daily Weather History Graph

Search for Another Location

Airport or City:

Astronomy

Dec. 26, 2013 Rise Set
Actual Time 7:22 AM EST 4:33 PM EST
Civil Twilight 6:50 AM EST 5:04 PM EST
Nautical Twilight 6:15 AM EST 5:39 PM EST
Astronomical Twilight 5:42 AM EST 6:13 PM EST
Moon 12:44 AM EST (12/26) 12:10 PM EST (12/26)
Length of Visible Light 10h 13m
Length of Day
9h 11m
Last Quarter, 38% of the Moon is Illuminated
Dec 26
Last Quarter
Jan 1
New
Jan 7
First Quarter
Jan 15
Full
Jan 24
Last Quarter

Hourly Weather History & Observations

Time (EST) Temp. Windchill Dew Point Humidity Pressure Visibility Wind Dir Wind Speed Gust Speed Precip Events Conditions
12:54 AM 21.0 °F - 14.0 °F 74% 30.40 in 10.0 mi Calm Calm - N/A   Scattered Clouds
1:54 AM 19.9 °F - 15.1 °F 81% 30.39 in 10.0 mi Calm Calm - N/A   Partly Cloudy
2:54 AM 21.0 °F - 15.1 °F 78% 30.38 in 10.0 mi Calm Calm - N/A   Partly Cloudy
3:54 AM 21.0 °F - 15.1 °F 78% 30.35 in 10.0 mi Calm Calm - N/A   Clear
4:54 AM 21.9 °F 17.2 °F 16.0 °F 78% 30.33 in 10.0 mi NE 3.5 mph - N/A   Mostly Cloudy
5:54 AM 23.0 °F - 16.0 °F 74% 30.32 in 10.0 mi Calm Calm - N/A   Overcast
6:54 AM 23.0 °F - 16.0 °F 74% 30.31 in 10.0 mi Calm Calm - N/A   Overcast
7:18 AM 23.0 °F - 16.0 °F 74% 30.27 in 10.0 mi Calm Calm - N/A   Overcast
7:43 AM 24.1 °F - 16.0 °F 71% 30.28 in 10.0 mi Calm Calm - N/A   Overcast
7:54 AM 24.1 °F - 16.0 °F 71% 30.29 in 10.0 mi Calm Calm - N/A   Overcast
8:54 AM 25.0 °F - 17.1 °F 72% 30.28 in 10.0 mi Calm Calm - N/A   Overcast
9:54 AM 26.1 °F - 18.0 °F 71% 30.25 in 10.0 mi Calm Calm - N/A   Overcast
10:54 AM 28.0 °F - 19.0 °F 69% 30.23 in 10.0 mi Calm Calm - N/A   Overcast
11:10 AM 27.0 °F 21.6 °F 19.0 °F 72% 30.21 in 2.5 mi WSW 4.6 mph - 0.00 in Snow Light Snow
11:15 AM 27.0 °F 21.6 °F 19.9 °F 75% 30.21 in 1.0 mi WSW 4.6 mph - 0.00 in Snow Light Snow
11:23 AM 26.1 °F 20.5 °F 19.9 °F 78% 30.20 in 0.5 mi WSW 4.6 mph - 0.00 in Snow Snow
11:35 AM 26.1 °F 21.9 °F 21.9 °F 84% 30.20 in 1.2 mi SW 3.5 mph - 0.00 in Snow Light Snow
11:41 AM 26.1 °F 20.5 °F 21.9 °F 84% 30.20 in 3.0 mi WSW 4.6 mph - 0.00 in Snow Light Snow
11:51 AM 26.6 °F - 21.2 °F 80% 30.19 in 4.0 mi Calm Calm - 0.00 in Snow Light Snow
11:54 AM 27.0 °F 23.0 °F 21.0 °F 78% 30.20 in 5.0 mi SSW 3.5 mph - 0.00 in Snow Light Snow
12:54 PM 28.9 °F 19.2 °F 21.9 °F 75% 30.16 in 10.0 mi SW 11.5 mph - 0.00 in   Overcast
1:41 PM 30.9 °F 22.8 °F 23.0 °F 72% 30.13 in 10.0 mi SW 9.2 mph - N/A   Overcast
1:54 PM 30.9 °F 22.8 °F 23.0 °F 72% 30.14 in 10.0 mi SW 9.2 mph - N/A   Overcast
2:54 PM 32.0 °F 27.5 °F 24.1 °F 73% 30.15 in 10.0 mi WSW 4.6 mph - N/A   Overcast
3:54 PM 33.1 °F 26.1 °F 23.0 °F 66% 30.16 in 10.0 mi WSW 8.1 mph - N/A   Clear
4:54 PM 30.0 °F - 21.9 °F 72% 30.18 in 10.0 mi Calm Calm - N/A   Clear
5:54 PM 26.1 °F - 21.0 °F 81% 30.20 in 10.0 mi Calm Calm - N/A   Clear
6:54 PM 21.9 °F - 19.9 °F 92% 30.23 in 10.0 mi Calm Calm - N/A   Clear
7:54 PM 21.0 °F - 18.0 °F 88% 30.24 in 9.0 mi Calm Calm - N/A   Clear
8:54 PM 21.9 °F 15.7 °F 19.0 °F 89% 30.25 in 8.0 mi SW 4.6 mph - N/A   Clear
9:54 PM 21.9 °F 17.2 °F 19.0 °F 89% 30.25 in 8.0 mi SSW 3.5 mph - N/A   Mostly Cloudy
10:54 PM 19.0 °F 11.1 °F 17.1 °F 92% 30.26 in 7.0 mi WSW 5.8 mph - N/A   Clear
11:54 PM 19.9 °F 13.4 °F 18.0 °F 92% 30.26 in 7.0 mi SW 4.6 mph - N/A   Clear